MARCH LFKF-LEAM

Flight info

Callsign MARCH
Flight time 1h 41m
Altitude 19000
Route NEGAT UT451 BUKID M601 MUREN/N0490F450 M601 BCN M985 VLC N860 DOSEK
Aircraft C750/M-SBDE3FGHRWXY/S

Departure

Time 2026-04-30 10:46
Airport Figari Sud-Corse Airport (LFKF)

Arrival

Time 2026-04-30 12:27
Airport Almería Airport (LEAM)
Time Latitude Longitude Altitude Speed Heading
2026-04-30 10:32 41.50115 9.09941 68 ft 0 kts 228°
2026-04-30 10:41 41.50114 9.09939 68 ft 2 kts 228°
2026-04-30 10:41 41.50106 9.09912 62 ft 6 kts 285°
2026-04-30 10:41 41.50100 9.09859 65 ft 6 kts 241°
2026-04-30 10:42 41.50100 9.09813 68 ft 5 kts 300°
2026-04-30 10:42 41.50121 9.09784 61 ft 4 kts 317°
2026-04-30 10:42 41.50139 9.09763 68 ft 2 kts 317°
2026-04-30 10:42 41.50139 9.09762 68 ft 0 kts 317°
2026-04-30 10:43 41.50146 9.09754 68 ft 5 kts 318°
2026-04-30 10:44 41.50197 9.09690 67 ft 11 kts 315°
2026-04-30 10:44 41.50221 9.09688 67 ft 0 kts 48°
2026-04-30 10:45 41.50266 9.09754 65 ft 46 kts 48°
2026-04-30 10:46 41.50719 9.10417 175 ft 123 kts 51°
2026-04-30 10:46 41.51321 9.11306 755 ft 135 kts 51°
2026-04-30 10:46 41.51873 9.12349 1459 ft 140 kts 58°
2026-04-30 10:46 41.52406 9.13458 2279 ft 144 kts 59°
2026-04-30 10:47 41.52956 9.14635 2925 ft 158 kts 58°
2026-04-30 10:47 41.53587 9.15944 3424 ft 180 kts 57°
2026-04-30 10:47 41.54382 9.17384 3874 ft 203 kts 51°
2026-04-30 10:47 41.55270 9.18815 4713 ft 198 kts 51°
2026-04-30 10:48 41.55861 9.20558 5243 ft 218 kts 80°
2026-04-30 10:48 41.55688 9.22536 6354 ft 220 kts 106°
2026-04-30 10:48 41.54695 9.24178 7029 ft 240 kts 144°
2026-04-30 10:48 41.53116 9.24817 7998 ft 241 kts 181°
2026-04-30 10:49 41.51535 9.24121 8864 ft 242 kts 220°
2026-04-30 10:49 41.50550 9.22393 9858 ft 231 kts 252°
2026-04-30 10:49 41.50020 9.20382 10731 ft 231 kts 254°
2026-04-30 10:49 41.49502 9.18317 11506 ft 236 kts 256°
2026-04-30 10:50 41.48974 9.16242 12356 ft 240 kts 255°
2026-04-30 10:50 41.48431 9.14111 13167 ft 244 kts 256°
2026-04-30 10:50 41.47891 9.12003 14059 ft 244 kts 256°
2026-04-30 10:50 41.47337 9.09820 14795 ft 248 kts 256°
2026-04-30 10:51 41.47072 9.07482 15033 ft 268 kts 270°
2026-04-30 10:51 41.47006 9.04913 15167 ft 295 kts 271°
2026-04-30 10:51 41.46902 9.02060 15242 ft 322 kts 269°
2026-04-30 10:51 41.46746 8.98966 15281 ft 347 kts 268°
2026-04-30 10:52 41.46586 8.95679 15578 ft 359 kts 268°
2026-04-30 10:52 41.46442 8.92359 16350 ft 358 kts 269°
2026-04-30 10:52 41.46297 8.89021 16995 ft 363 kts 269°
2026-04-30 10:52 41.46142 8.85660 17704 ft 365 kts 268°
2026-04-30 10:53 41.45983 8.82256 18384 ft 369 kts 268°
2026-04-30 10:53 41.45825 8.78828 19007 ft 372 kts 268°
2026-04-30 10:53 41.45666 8.75371 19673 ft 375 kts 268°
2026-04-30 10:53 41.45503 8.71890 20354 ft 378 kts 268°
2026-04-30 10:54 41.45337 8.68379 21003 ft 381 kts 268°
2026-04-30 10:54 41.45170 8.64841 21677 ft 384 kts 268°
2026-04-30 10:54 41.45000 8.61278 22334 ft 387 kts 268°
2026-04-30 10:54 41.44828 8.57682 22988 ft 390 kts 268°
2026-04-30 10:55 41.44652 8.54063 23624 ft 393 kts 268°
2026-04-30 10:55 41.44475 8.50409 24170 ft 396 kts 268°
2026-04-30 10:55 41.44295 8.46735 24722 ft 399 kts 268°
2026-04-30 10:55 41.44113 8.43035 25263 ft 401 kts 268°
2026-04-30 10:56 41.43929 8.39317 25796 ft 404 kts 268°
2026-04-30 10:56 41.43742 8.35573 26328 ft 406 kts 268°
2026-04-30 10:56 41.43552 8.31801 26844 ft 409 kts 268°
2026-04-30 10:56 41.43361 8.28009 27368 ft 412 kts 268°
2026-04-30 10:57 41.43166 8.24192 27895 ft 414 kts 268°
2026-04-30 10:57 41.42970 8.20348 28426 ft 417 kts 268°
2026-04-30 10:57 41.42770 8.16476 28949 ft 420 kts 268°
2026-04-30 10:57 41.42567 8.12577 29460 ft 423 kts 268°
2026-04-30 10:58 41.42363 8.08657 29962 ft 426 kts 268°
2026-04-30 10:58 41.42155 8.04708 30412 ft 429 kts 268°
2026-04-30 10:58 41.41945 8.00752 30893 ft 430 kts 268°
2026-04-30 10:58 41.41708 7.96779 31478 ft 428 kts 265°
2026-04-30 10:59 41.41170 7.92951 32218 ft 424 kts 258°
2026-04-30 10:59 41.40286 7.89219 32988 ft 422 kts 252°
2026-04-30 10:59 41.39075 7.85679 33742 ft 420 kts 246°
2026-04-30 10:59 41.37553 7.82359 34438 ft 420 kts 240°
2026-04-30 11:00 41.35739 7.79305 35006 ft 423 kts 234°
2026-04-30 11:00 41.33661 7.76514 35539 ft 424 kts 230°
2026-04-30 11:00 41.31548 7.73783 36093 ft 423 kts 230°
2026-04-30 11:00 41.29456 7.71047 36627 ft 421 kts 231°
2026-04-30 11:01 41.27365 7.68326 37180 ft 420 kts 231°
2026-04-30 11:01 41.25271 7.65623 37732 ft 419 kts 231°
2026-04-30 11:01 41.23186 7.62933 38282 ft 418 kts 231°
2026-04-30 11:01 41.21106 7.60239 38811 ft 416 kts 231°
2026-04-30 11:02 41.19035 7.57558 39198 ft 416 kts 231°
2026-04-30 11:02 41.16958 7.54879 39577 ft 417 kts 230°
2026-04-30 11:02 41.14874 7.52193 39911 ft 418 kts 230°
2026-04-30 11:02 41.12783 7.49498 40256 ft 420 kts 230°
2026-04-30 11:03 41.10683 7.46796 40602 ft 421 kts 230°
2026-04-30 11:03 41.08576 7.44087 40935 ft 423 kts 230°
2026-04-30 11:03 41.06459 7.41368 41288 ft 424 kts 230°
2026-04-30 11:04 41.02208 7.35915 41982 ft 427 kts 229°
2026-04-30 11:04 41.00068 7.33175 42327 ft 428 kts 229°
2026-04-30 11:04 40.97925 7.30432 42671 ft 430 kts 229°
2026-04-30 11:04 40.95777 7.27675 43011 ft 430 kts 230°
2026-04-30 11:05 40.93853 7.24667 43304 ft 427 kts 238°
2026-04-30 11:05 40.92311 7.21342 43655 ft 423 kts 246°
2026-04-30 11:05 40.91163 7.17767 43985 ft 421 kts 254°
2026-04-30 11:05 40.90431 7.14032 44323 ft 419 kts 262°
2026-04-30 11:06 40.90119 7.10217 44678 ft 418 kts 269°
2026-04-30 11:06 40.90198 7.06375 44957 ft 418 kts 274°
2026-04-30 11:06 40.90352 7.02529 45083 ft 423 kts 274°
2026-04-30 11:07 40.90637 6.94637 45093 ft 437 kts 274°
2026-04-30 11:07 40.90948 6.86487 45090 ft 451 kts 274°
2026-04-30 11:08 40.91248 6.78111 45093 ft 461 kts 273°
2026-04-30 11:08 40.91551 6.69644 45088 ft 462 kts 273°
2026-04-30 11:09 40.91846 6.61166 45091 ft 462 kts 273°
2026-04-30 11:09 40.92137 6.52687 45090 ft 462 kts 273°
2026-04-30 11:10 40.92421 6.44211 45092 ft 462 kts 273°
2026-04-30 11:10 40.92697 6.35785 45091 ft 462 kts 273°
2026-04-30 11:11 40.92968 6.27300 45089 ft 462 kts 273°
2026-04-30 11:11 40.93233 6.18823 45089 ft 462 kts 273°
2026-04-30 11:12 40.93493 6.10339 45092 ft 462 kts 273°
2026-04-30 11:12 40.93746 6.01868 45088 ft 461 kts 272°
2026-04-30 11:13 40.93991 5.93394 45089 ft 461 kts 272°
2026-04-30 11:13 40.94232 5.84924 45089 ft 461 kts 272°
2026-04-30 11:14 40.94466 5.76450 45088 ft 461 kts 272°
2026-04-30 11:14 40.94777 5.67992 45065 ft 460 kts 277°
2026-04-30 11:15 40.95733 5.59631 45098 ft 460 kts 278°
2026-04-30 11:15 40.96648 5.51248 45098 ft 460 kts 278°
2026-04-30 11:16 40.97591 5.42876 45092 ft 460 kts 278°
2026-04-30 11:16 40.98505 5.34503 45092 ft 460 kts 278°
2026-04-30 11:17 40.99427 5.26113 45085 ft 461 kts 278°
2026-04-30 11:17 41.00337 5.17717 45085 ft 461 kts 277°
2026-04-30 11:18 41.01245 5.09323 45086 ft 460 kts 277°
2026-04-30 11:18 41.02591 4.96735 45099 ft 461 kts 277°
2026-04-30 11:19 41.03484 4.88310 45097 ft 462 kts 277°
2026-04-30 11:19 41.04220 4.81318 45097 ft 462 kts 277°
2026-04-30 11:20 41.05102 4.72891 45095 ft 462 kts 277°
2026-04-30 11:20 41.05979 4.64465 45099 ft 462 kts 277°
2026-04-30 11:21 41.06906 4.56048 45090 ft 462 kts 277°
2026-04-30 11:21 41.07811 4.47579 45093 ft 464 kts 277°
2026-04-30 11:22 41.08719 4.39119 45093 ft 464 kts 277°
2026-04-30 11:22 41.09762 4.29278 45094 ft 464 kts 277°
2026-04-30 11:23 41.10511 4.22182 45096 ft 464 kts 277°
2026-04-30 11:24 41.11841 4.09441 45095 ft 465 kts 277°
2026-04-30 11:24 41.12721 4.00944 45094 ft 465 kts 277°
2026-04-30 11:25 41.14025 3.88228 45099 ft 468 kts 277°
2026-04-30 11:26 41.15757 3.71125 45100 ft 468 kts 277°
2026-04-30 11:26 41.16618 3.62557 45102 ft 468 kts 277°
2026-04-30 11:27 41.17470 3.53994 45103 ft 468 kts 277°
2026-04-30 11:27 41.18318 3.45417 45103 ft 468 kts 277°
2026-04-30 11:28 41.19569 3.32560 45103 ft 468 kts 276°
2026-04-30 11:29 41.20396 3.23983 45104 ft 468 kts 276°
2026-04-30 11:29 41.21624 3.11114 45099 ft 468 kts 276°
2026-04-30 11:30 41.22841 2.98234 45090 ft 469 kts 276°
2026-04-30 11:31 41.23646 2.89633 45094 ft 469 kts 276°
2026-04-30 11:31 41.24443 2.81035 45093 ft 469 kts 276°
2026-04-30 11:32 41.25230 2.72485 45094 ft 469 kts 276°
2026-04-30 11:32 41.26020 2.63822 45094 ft 470 kts 276°
2026-04-30 11:33 41.27188 2.50883 45090 ft 470 kts 276°
2026-04-30 11:33 41.27959 2.42254 45093 ft 470 kts 276°
2026-04-30 11:34 41.28718 2.33686 45096 ft 470 kts 276°
2026-04-30 11:34 41.29476 2.25046 45098 ft 472 kts 275°
2026-04-30 11:35 41.29455 2.16313 45093 ft 470 kts 261°
2026-04-30 11:35 41.27563 2.08013 45094 ft 471 kts 245°
2026-04-30 11:36 41.23948 2.00745 45098 ft 475 kts 230°
2026-04-30 11:36 41.19554 1.94262 45110 ft 475 kts 230°
2026-04-30 11:37 41.15139 1.87729 45102 ft 475 kts 230°
2026-04-30 11:37 41.10710 1.81220 45092 ft 474 kts 230°
2026-04-30 11:38 41.06310 1.74747 45092 ft 473 kts 230°
2026-04-30 11:38 41.01899 1.68285 45092 ft 473 kts 230°
2026-04-30 11:39 40.97484 1.61818 45095 ft 473 kts 230°
2026-04-30 11:39 40.93064 1.55366 45095 ft 473 kts 230°
2026-04-30 11:40 40.88644 1.48923 45092 ft 471 kts 229°
2026-04-30 11:40 40.84233 1.42511 45091 ft 472 kts 229°
2026-04-30 11:41 40.79817 1.36110 45094 ft 472 kts 229°
2026-04-30 11:41 40.75395 1.29711 45095 ft 472 kts 229°
2026-04-30 11:42 40.70968 1.23321 45092 ft 472 kts 229°
2026-04-30 11:42 40.66546 1.16940 45093 ft 472 kts 229°
2026-04-30 11:43 40.62144 1.10603 45091 ft 472 kts 229°
2026-04-30 11:43 40.57713 1.04236 45093 ft 472 kts 229°
2026-04-30 11:44 40.53274 0.97872 45094 ft 472 kts 229°
2026-04-30 11:44 40.48819 0.91511 45092 ft 475 kts 229°
2026-04-30 11:45 40.44356 0.85147 45087 ft 473 kts 229°
2026-04-30 11:45 40.39891 0.78795 45087 ft 473 kts 229°
2026-04-30 11:46 40.35421 0.72449 45086 ft 474 kts 229°
2026-04-30 11:46 40.30945 0.66107 45087 ft 474 kts 229°
2026-04-30 11:47 40.26470 0.59781 45085 ft 473 kts 229°
2026-04-30 11:47 40.21999 0.53474 45086 ft 472 kts 229°
2026-04-30 11:48 40.17526 0.47184 45087 ft 472 kts 229°
2026-04-30 11:48 40.13052 0.40899 45088 ft 472 kts 229°
2026-04-30 11:49 40.08580 0.34632 45092 ft 470 kts 228°
2026-04-30 11:49 40.04110 0.28383 45083 ft 471 kts 228°
2026-04-30 11:50 39.99638 0.22142 45080 ft 471 kts 228°
2026-04-30 11:50 39.95196 0.15945 45078 ft 471 kts 228°
2026-04-30 11:51 39.90690 0.09676 45080 ft 471 kts 228°
2026-04-30 11:51 39.86212 0.03456 45079 ft 471 kts 228°
2026-04-30 11:52 39.81728 -0.02758 45070 ft 473 kts 228°
2026-04-30 11:52 39.77215 -0.08993 45077 ft 474 kts 228°
2026-04-30 11:53 39.72700 -0.15223 45080 ft 473 kts 228°
2026-04-30 11:53 39.68213 -0.21399 45080 ft 473 kts 228°
2026-04-30 11:54 39.63692 -0.27610 45073 ft 473 kts 228°
2026-04-30 11:54 39.59170 -0.33810 45072 ft 473 kts 227°
2026-04-30 11:55 39.54638 -0.40010 45073 ft 474 kts 227°
2026-04-30 11:55 39.50079 -0.46172 45063 ft 474 kts 225°
2026-04-30 11:56 39.44653 -0.51046 45070 ft 478 kts 210°
2026-04-30 11:56 39.38788 -0.55109 45087 ft 478 kts 211°
2026-04-30 11:57 39.32932 -0.59199 45072 ft 478 kts 210°
2026-04-30 11:57 39.27072 -0.63255 45067 ft 478 kts 210°
2026-04-30 11:58 39.21217 -0.67319 45068 ft 478 kts 210°
2026-04-30 11:58 39.15358 -0.71367 45068 ft 478 kts 210°
2026-04-30 11:59 39.09501 -0.75411 45063 ft 477 kts 210°
2026-04-30 11:59 39.03654 -0.79438 44972 ft 471 kts 210°
2026-04-30 12:00 39.00798 -0.81403 44369 ft 459 kts 210°
2026-04-30 12:00 38.98018 -0.83313 43828 ft 447 kts 210°
2026-04-30 12:00 38.95316 -0.85168 43290 ft 435 kts 210°
2026-04-30 12:00 38.92677 -0.86979 42783 ft 425 kts 210°
2026-04-30 12:01 38.90082 -0.88758 42281 ft 421 kts 210°
2026-04-30 12:01 38.87533 -0.90505 41788 ft 421 kts 210°
2026-04-30 12:01 38.84944 -0.92277 41299 ft 422 kts 210°
2026-04-30 12:01 38.82353 -0.94048 40802 ft 422 kts 210°
2026-04-30 12:02 38.79764 -0.95817 40302 ft 422 kts 210°
2026-04-30 12:02 38.77177 -0.97583 39805 ft 421 kts 210°
2026-04-30 12:02 38.74597 -0.99342 39302 ft 420 kts 210°
2026-04-30 12:02 38.72019 -1.01099 38803 ft 419 kts 210°
2026-04-30 12:03 38.69447 -1.02850 38254 ft 419 kts 210°
2026-04-30 12:03 38.64271 -1.06372 37246 ft 423 kts 210°
2026-04-30 12:03 38.61669 -1.08138 36755 ft 425 kts 210°
2026-04-30 12:04 38.59047 -1.09918 36249 ft 427 kts 210°
2026-04-30 12:04 38.56421 -1.11699 35742 ft 429 kts 209°
2026-04-30 12:04 38.53780 -1.13489 35235 ft 431 kts 209°
2026-04-30 12:04 38.51127 -1.15284 34725 ft 431 kts 209°
2026-04-30 12:05 38.48477 -1.17077 34212 ft 432 kts 209°
2026-04-30 12:05 38.45812 -1.18879 33629 ft 434 kts 209°
2026-04-30 12:05 38.43143 -1.20681 33113 ft 435 kts 209°
2026-04-30 12:05 38.40463 -1.22489 32597 ft 436 kts 209°
2026-04-30 12:06 38.37775 -1.24302 32081 ft 438 kts 209°
2026-04-30 12:06 38.35078 -1.26118 31557 ft 439 kts 209°
2026-04-30 12:06 38.32377 -1.27936 31035 ft 440 kts 209°
2026-04-30 12:06 38.29659 -1.29764 30513 ft 442 kts 209°
2026-04-30 12:07 38.26958 -1.31578 29964 ft 437 kts 209°
2026-04-30 12:07 38.24282 -1.33375 29431 ft 433 kts 209°
2026-04-30 12:07 38.21623 -1.35158 28920 ft 430 kts 209°
2026-04-30 12:07 38.18985 -1.36926 28411 ft 427 kts 209°
2026-04-30 12:08 38.16371 -1.38677 27900 ft 423 kts 209°
2026-04-30 12:08 38.13773 -1.40416 27395 ft 422 kts 209°
2026-04-30 12:08 38.11235 -1.42112 26912 ft 417 kts 209°
2026-04-30 12:08 38.08675 -1.43822 26416 ft 414 kts 209°
2026-04-30 12:09 38.06136 -1.45517 25927 ft 411 kts 209°
2026-04-30 12:09 38.03619 -1.47196 25441 ft 408 kts 209°
2026-04-30 12:09 38.01115 -1.48865 24948 ft 405 kts 209°
2026-04-30 12:09 37.98626 -1.50523 24447 ft 403 kts 209°
2026-04-30 12:10 37.96157 -1.52166 23949 ft 399 kts 209°
2026-04-30 12:10 37.94528 -1.53248 23622 ft 398 kts 208°
2026-04-30 12:10 37.92055 -1.54892 23055 ft 396 kts 208°
2026-04-30 12:10 37.89656 -1.56485 22578 ft 394 kts 208°
2026-04-30 12:11 37.87227 -1.58068 22098 ft 391 kts 208°
2026-04-30 12:11 37.84801 -1.59631 21618 ft 390 kts 208°
2026-04-30 12:11 37.82387 -1.61198 21139 ft 388 kts 208°
2026-04-30 12:11 37.79991 -1.62764 20677 ft 387 kts 208°
2026-04-30 12:12 37.77603 -1.64319 20200 ft 385 kts 208°
2026-04-30 12:12 37.75225 -1.65859 19739 ft 383 kts 208°
2026-04-30 12:12 37.72858 -1.67393 19275 ft 382 kts 208°
2026-04-30 12:12 37.70499 -1.68924 18819 ft 380 kts 208°
2026-04-30 12:13 37.68144 -1.70451 18353 ft 380 kts 208°
2026-04-30 12:13 37.65800 -1.71968 17869 ft 377 kts 208°
2026-04-30 12:13 37.63477 -1.73470 17422 ft 374 kts 208°
2026-04-30 12:13 37.61174 -1.74958 16983 ft 371 kts 208°
2026-04-30 12:14 37.58881 -1.76440 16551 ft 368 kts 208°
2026-04-30 12:14 37.56609 -1.77906 16119 ft 366 kts 208°
2026-04-30 12:14 37.54353 -1.79361 15687 ft 363 kts 208°
2026-04-30 12:14 37.52113 -1.80804 15270 ft 360 kts 208°
2026-04-30 12:15 37.49886 -1.82239 14849 ft 358 kts 208°
2026-04-30 12:15 37.47676 -1.83662 14438 ft 354 kts 208°
2026-04-30 12:15 37.45487 -1.85070 14010 ft 352 kts 208°
2026-04-30 12:15 37.43312 -1.86468 13589 ft 349 kts 208°
2026-04-30 12:16 37.41153 -1.87855 13178 ft 347 kts 208°
2026-04-30 12:16 37.39004 -1.89235 12769 ft 346 kts 208°
2026-04-30 12:16 37.36862 -1.90609 12374 ft 344 kts 208°
2026-04-30 12:16 37.34736 -1.91973 11975 ft 342 kts 208°
2026-04-30 12:17 37.30521 -1.94674 11186 ft 336 kts 208°
2026-04-30 12:17 37.28519 -1.95956 10795 ft 311 kts 208°
2026-04-30 12:17 37.26655 -1.97150 10403 ft 291 kts 208°
2026-04-30 12:18 37.24887 -1.98281 10045 ft 281 kts 208°
2026-04-30 12:18 37.23199 -1.99456 9695 ft 276 kts 210°
2026-04-30 12:18 37.21501 -2.00570 9380 ft 275 kts 208°
2026-04-30 12:18 37.19798 -2.01664 9077 ft 274 kts 209°
2026-04-30 12:19 37.18121 -2.02787 8767 ft 274 kts 209°
2026-04-30 12:19 37.16444 -2.03922 8458 ft 272 kts 209°
2026-04-30 12:19 37.14783 -2.05032 8157 ft 270 kts 209°
2026-04-30 12:19 37.13121 -2.06137 7858 ft 269 kts 209°
2026-04-30 12:20 37.11470 -2.07237 7556 ft 268 kts 209°
2026-04-30 12:20 37.09817 -2.08341 7259 ft 269 kts 210°
2026-04-30 12:20 37.08123 -2.09238 6912 ft 273 kts 194°
2026-04-30 12:20 37.06230 -2.09352 6645 ft 272 kts 181°
2026-04-30 12:21 37.04338 -2.09342 6348 ft 271 kts 183°
2026-04-30 12:21 37.02447 -2.09362 6050 ft 273 kts 183°
2026-04-30 12:21 37.00562 -2.09383 5749 ft 269 kts 183°
2026-04-30 12:21 36.98692 -2.09397 5440 ft 267 kts 182°
2026-04-30 12:22 36.96884 -2.09407 5151 ft 253 kts 183°
2026-04-30 12:22 36.95153 -2.09420 4872 ft 244 kts 182°
2026-04-30 12:22 36.93484 -2.09438 4601 ft 237 kts 184°
2026-04-30 12:22 36.91913 -2.09947 4267 ft 234 kts 211°
2026-04-30 12:23 36.90767 -2.11341 4028 ft 232 kts 238°
2026-04-30 12:23 36.90195 -2.13207 3828 ft 229 kts 254°
2026-04-30 12:23 36.89739 -2.15136 3612 ft 232 kts 254°
2026-04-30 12:23 36.89270 -2.17066 3360 ft 232 kts 253°
2026-04-30 12:24 36.88798 -2.18995 3091 ft 233 kts 253°
2026-04-30 12:24 36.88328 -2.20919 2746 ft 231 kts 253°
2026-04-30 12:24 36.87862 -2.22832 2392 ft 225 kts 252°
2026-04-30 12:24 36.87421 -2.24641 2013 ft 218 kts 252°
2026-04-30 12:25 36.86979 -2.26446 1693 ft 213 kts 251°
2026-04-30 12:25 36.86573 -2.28115 1384 ft 181 kts 250°
2026-04-30 12:25 36.86242 -2.29490 1124 ft 150 kts 251°
2026-04-30 12:25 36.85968 -2.30609 894 ft 126 kts 249°
2026-04-30 12:26 36.85708 -2.31652 755 ft 125 kts 249°
2026-04-30 12:26 36.85448 -2.32710 534 ft 129 kts 249°
2026-04-30 12:26 36.85188 -2.33790 361 ft 129 kts 249°
2026-04-30 12:26 36.84931 -2.34841 192 ft 124 kts 249°
2026-04-30 12:27 36.84681 -2.35846 60 ft 116 kts 249°
2026-04-30 12:27 36.84507 -2.36558 54 ft 55 kts 250°
2026-04-30 12:27 36.84427 -2.36883 57 ft 35 kts 252°
2026-04-30 12:27 36.84382 -2.37086 58 ft 11 kts 289°
2026-04-30 12:28 36.84440 -2.37061 59 ft 14 kts 41°
2026-04-30 12:28 36.84517 -2.36974 61 ft 14 kts 41°
2026-04-30 12:28 36.84547 -2.36939 62 ft 2 kts 43°
2026-04-30 12:28 36.84574 -2.36927 62 ft 9 kts 340°
2026-04-30 12:29 36.84569 -2.37011 62 ft 10 kts 253°
2026-04-30 12:29 36.84548 -2.37093 59 ft 10 kts 252°
2026-04-30 12:29 36.84528 -2.37179 62 ft 11 kts 253°
2026-04-30 12:29 36.84503 -2.37277 60 ft 13 kts 253°
2026-04-30 12:30 36.84507 -2.37369 61 ft 12 kts 326°
2026-04-30 12:30 36.84538 -2.37488 62 ft 21 kts 287°
2026-04-30 12:30 36.84531 -2.37684 66 ft 24 kts 254°
2026-04-30 12:30 36.84566 -2.37785 67 ft 7 kts 28°
2026-04-30 12:31 36.84564 -2.37753 67 ft 0 kts 103°